{"data":{"norad_id":67962,"intl_designator":"2026-038B","name":"STARLINK-36881","alt_names":[],"object_type":"PAYLOAD","status":"ACTIVE","operator":null,"country":"US","launch_date":"2026-02-25","launch_site_code":"AFWTR","launch_vehicle":null,"mission":null,"orbit_class":"UNKNOWN","rcs_meters":null,"size_class":null,"mass_kg":null,"dimensions":null,"purposes":["comms"],"wikipedia_slug":null,"has_3d_model":false,"image_url":null,"decayed_at":null,"tle_current":{"epoch":"2026-05-25T00:34:23.122272Z","epoch_age_seconds":76146,"freshness":"FRESH","line1":"1 67962U 26038B   26145.02387873  .00011797  00000+0  36724-3 0  9994","line2":"2 67962  97.2830 154.9927 0001693  90.4962 269.6475 15.33438105 14936","mean_motion":15.33438105,"eccentricity":0.0001693,"inclination_deg":97.283,"raan_deg":154.9927,"arg_perigee_deg":90.4962,"mean_anomaly_deg":269.6475,"bstar":0.00036724,"rev_number":1493,"period_min":93.906626899688,"perigee_km":464.40505069727,"apogee_km":466.72232775064,"semimajor_km":6843.700689224,"source":"CELESTRAK","updated_at":"2026-05-25T13:38:21.772896Z"}}}